Wind_Speed
4 5 5 5 5 6 6 6 6 6 6 6 6 7 6 6 6 6 7 7 6 6 6 5 5 5 5 4 4 4 4 4 3 4 4 4 4 4 4 5 4 4 4
4 4 5 5 5 6 6 6 7 6 6 6 7 6 6 6 5 6 6 6 5 5 5 5 5 4 4 4 4 4 3 3 3 3 3 3 4 4 4 5 5 5 5
5 5 5 5 5 6 6 6 6 6 6 6 6 6 6 6 5 6 6 6 5 4 5 5 5 5 4 4 4 3 3 3 3 3 3 3 4 4 4 5 5 5 5
5 5 5 6 6 5 6 6 6 6 6 6 6 6 6 6 5 5 6 5 5 4 4 4 5 5 4 4 4 3 3 2 2 3 3 3 4 4 4 4 4 5 5
5 5 5 5 6 5 5 6 5 6 6 6 6 5 5 5 5 5 5 5 4 4 4 4 4 4 4 4 3 3 2 2 2 3 3 3 3 3 3 4 4 4 4
5 6 6 5 5 6 5 5 5 5 5 6 6 5 5 6 5 5 5 4 4 4 4 4 4 3 3 3 2 2 2 3 2 2 2 2 3 2 3 3 3 3 3
6 5 6 6 6 6 5 5 4 4 5 5 5 5 5 5 5 4 4 4 4 4 4 4 3 3 3 3 2 2 2 3 2 2 2 2 2 2 2 2 2 2 2
5 6 6 6 6 5 5 5 5 5 5 5 5 5 4 4 4 4 4 4 4 4 4 4 3 4 3 3 2 1 2 2 2 2 2 2 2 2 2 2 2 2 2
7 6 6 6 6 5 5 4 5 5 5 4 4 4 4 4 4 4 4 5 4 4 3 3 2 1 1 1 1 1 1 1 1 1 2 2 2 3 2 2 2 2 2
8 7 6 6 6 6 5 5 5 4 4 4 4 4 4 4 4 4 4 4 4 3 3 3 2 2 1 1 1 1 1 1 1 1 1 2 2 3 3 2 3 3 2
10 9 7 7 6 6 6 6 6 5 4 4 4 3 4 4 4 4 4 3 3 3 3 3 2 1 1 1 1 1 1 0 1 1 1 2 3 3 3 3 3 3 3
9 9 8 8 7 6 6 6 6 5 5 5 4 4 4 5 5 5 4 4 3 3 3 2 2 1 1 1 1 1 2 1 0 1 2 2 3 3 3 4 4 4 3
9 9 8 8 7 7 7 7 7 7 5 6 6 5 5 5 5 4 3 3 3 3 3 3 2 2 2 1 1 2 2 2 1 1 1 2 3 3 3 3 4 4 3
9 10 9 8 8 8 7 7 7 7 6 6 6 6 5 4 4 4 3 3 3 2 3 3 2 2 2 2 2 2 2 3 2 2 2 2 3 4 4 4 4 4 3
9 9 9 9 8 8 8 8 7 6 6 5 5 5 4 3 3 3 4 3 3 3 2 2 3 2 2 2 2 2 2 2 3 3 3 2 3 4 4 4 4 4 4
8 9 9 8 7 7 7 6 6 6 5 5 5 5 4 3 3 3 3 2 3 3 2 1 2 2 2 2 2 2 2 2 3 3 3 3 3 3 3 4 4 4 4
8 8 8 7 7 7 6 6 6 6 5 5 4 4 4 4 4 3 3 3 2 2 2 2 3 3 3 2 3 3 3 3 3 3 4 4 3 4 5 5 5 5 5
7 7 7 7 7 7 6 6 6 6 5 5 4 4 4 4 4 3 3 3 3 3 3 2 3 4 4 3 3 4 3 3 3 4 4 4 4 5 5 6 6 6 6
7 7 7 7 6 6 6 6 6 6 5 5 4 4 4 4 4 4 3 3 3 3 3 3 3 4 4 4 3 4 4 4 4 5 5 5 5 5 6 6 7 7 7
6 6 6 6 6 6 6 6 6 6 5 5 4 4 4 4 4 4 4 4 4 3 4 4 4 4 4 4 4 4 4 5 5 5 6 6 6 6 7 8 8 9 9
5 6 6 6 6 6 6 6 6 6 6 6 5 5 5 5 5 5 5 5 5 5 5 5 5 5 6 6 5 5 6 6 6 7 7 8 8 9 9 10 10 11 11
5 5 6 6 6 6 6 7 7 7 7 7 7 6 6 6 5 5 5 5 5 5 5 6 6 6 7 7 7 7 7 7 8 8 8 9 10 10 11 11 11 12 12
6 6 6 7 7 7 7 8 8 8 8 7 7 6 6 6 6 6 6 7 7 6 6 7 7 7 8 8 9 9 9 10 10 10 11 11 11 12 12 12 13 13 14
7 7 7 8 8 8 8 9 9 8 8 8 7 7 7 7 7 7 7 8 8 8 8 8 9 9 9 10 10 11 12 12 13 13 13 13 13 14 14 14 14 14 14
8 8 8 9 9 10 10 10 10 9 9 9 9 9 9 9 9 9 9 9 9 9 10 10 10 11 11 11 12 13 13 14 15 15 15 15 15 15 15 16 16 16 15
10 9 10 10 10 11 11 11 11 11 11 11 10 10 10 10 10 10 10 10 10 10 11 11 11 12 13 13 13 14 15 15 16 16 16 17 16 16 17 17 17 17 17
Wind_Direction
81 87 92 102 113 120 124 127 131 131 134 135 140 141 136 134 134 136 130 121 124 128 127 128 130 124 123 120 116 108 106 109 89 73 67 62 62 59 52 46 58 67 64
73 84 94 100 116 119 125 124 126 127 131 135 135 136 134 136 132 133 125 120 121 128 128 125 127 127 126 121 115 107 105 101 81 69 66 66 60 56 57 55 67 64 65
72 78 92 105 114 118 120 118 124 127 128 133 133 130 127 131 132 129 126 123 121 121 120 119 123 122 125 125 114 111 103 91 75 64 63 70 65 57 65 70 65 63 65
71 82 93 104 113 116 114 118 122 125 125 129 130 126 120 122 126 122 121 120 116 118 115 118 120 124 115 115 107 102 97 96 74 63 64 71 68 69 72 74 68 65 66
74 84 92 102 109 114 115 115 119 127 129 129 128 125 122 123 125 125 124 126 120 114 116 126 126 135 123 123 106 95 94 88 80 72 77 73 66 67 72 70 73 74 69
74 80 86 98 105 108 106 112 114 123 130 132 133 131 125 127 128 128 124 129 128 120 122 118 111 130 133 121 100 90 93 88 87 79 83 62 47 51 58 60 66 68 61
78 86 89 91 96 92 94 102 114 122 128 130 130 129 128 125 128 132 131 127 123 113 114 118 121 118 125 103 86 77 80 88 93 83 74 60 35 45 57 55 51 47 43
81 92 87 92 94 91 95 106 117 124 128 127 135 135 132 127 122 126 128 122 116 107 101 100 104 110 87 75 62 51 71 84 80 76 59 50 48 47 43 39 38 30 32
83 91 88 86 86 87 92 99 106 108 117 111 122 119 116 118 120 118 116 118 113 107 96 98 109 107 71 55 29 20 41 79 63 52 49 44 38 25 15 12 13 6 6
80 87 86 83 85 85 85 91 99 100 102 102 111 112 110 109 120 116 108 112 115 109 97 100 100 88 53 10 23 23 23 48 61 51 43 22 13 14 9 356 358 358 354
72 75 77 76 76 73 77 81 87 87 92 94 96 99 101 106 107 102 102 106 106 102 91 90 88 84 55 50 41 42 43 72 85 58 30 17 10 7 6 1 347 340 345
61 60 64 65 66 62 57 59 66 79 84 85 83 88 91 97 90 85 86 93 99 98 93 92 78 61 48 43 49 41 31 22 3 9 13 14 13 7 5 359 349 344 347
55 53 55 60 58 55 56 55 54 66 76 83 85 90 88 89 88 84 82 79 92 87 89 91 82 68 59 59 47 52 44 22 9 340 335 345 350 345 347 347 337 328 324
53 50 50 53 52 54 55 52 51 59 66 67 75 86 89 87 85 87 73 70 74 75 75 67 66 62 48 44 50 55 29 11 7 354 345 330 332 333 333 336 338 324 305
54 52 49 51 51 49 50 50 49 53 50 51 59 67 77 74 71 66 56 68 73 67 61 68 61 55 39 33 36 26 17 1 3 8 2 352 338 328 328 338 335 334 311
47 48 46 45 46 44 44 44 41 46 45 40 48 50 55 53 47 39 41 52 62 54 47 43 40 33 17 25 29 19 11 8 6 13 1 349 341 337 337 337 333 330 325
38 37 40 42 40 36 33 32 33 38 39 35 37 37 34 34 28 23 17 15 18 17 19 18 24 23 13 16 21 22 18 14 10 1 353 343 334 330 333 333 330 330 325
29 26 31 36 33 31 28 24 24 30 33 25 17 12 18 20 11 6 358 9 13 7 5 7 8 8 3 1 7 6 3 359 353 348 342 338 328 319 320 324 322 321 320
24 22 22 25 24 22 18 15 13 13 12 7 7 4 3 0 359 0 359 3 357 350 349 346 344 346 350 347 344 341 336 331 336 332 327 328 328 319 313 313 315 316 314
16 16 14 13 14 13 10 8 4 359 354 350 352 351 353 355 359 4 357 352 348 338 324 317 323 324 329 330 326 320 322 320 320 320 319 320 318 316 309 306 309 309 309
359 1 1 0 360 1 1 357 352 348 346 343 342 340 343 343 341 343 341 338 333 326 322 317 313 314 317 319 319 314 307 310 310 312 312 313 312 311 309 307 305 303 303
336 342 346 349 348 347 343 341 341 341 339 336 335 333 331 326 323 318 320 324 322 319 315 314 313 309 311 312 310 308 307 306 306 308 308 310 309 308 305 304 303 303 302
318 323 330 335 335 334 333 334 333 331 330 331 329 324 322 320 315 313 310 313 314 315 314 309 307 305 303 302 302 304 307 307 305 305 305 304 306 305 303 303 303 303 302
308 312 318 321 324 325 324 324 325 324 325 326 327 325 320 317 314 308 307 308 309 311 310 308 306 304 303 301 300 300 301 303 303 303 301 302 302 300 301 299 299 299 300
299 301 307 312 315 316 318 317 318 317 318 320 320 318 316 315 315 313 307 304 304 305 306 304 303 302 302 301 299 299 299 299 300 302 299 298 298 299 300 299 299 298 297
293 295 298 303 307 311 314 313 311 310 311 313 312 311 311 312 312 312 308 304 303 305 305 304 301 301 301 300 299 300 300 300 300 301 302 300 297 296 295 295 296 297 297
Height
5879 5878 5878 5879 5879 5880 5880 5881 5881 5882 5882 5883 5883 5884 5884 5885 5885 5886 5886 5887 5888 5888 5889 5889 5890 5891 5892 5892 5893 5894 5894 5895 5895 5895 5895 5895 5895 5895 5895 5895 5895 5896 5896
5880 5880 5880 5880 5881 5881 5881 5882 5883 5883 5883 5884 5884 5885 5885 5886 5886 5887 5887 5888 5889 5889 5890 5891 5891 5892 5893 5893 5894 5894 5895 5895 5896 5896 5896 5896 5896 5896 5896 5896 5896 5897 5897
5881 5881 5881 5881 5882 5882 5883 5883 5884 5884 5885 5885 5885 5886 5886 5887 5887 5888 5888 5889 5890 5890 5891 5892 5892 5893 5893 5894 5894 5895 5895 5896 5896 5896 5896 5896 5897 5897 5897 5897 5897 5898 5898
5883 5882 5882 5883 5883 5884 5884 5884 5885 5885 5886 5886 5887 5887 5888 5888 5889 5889 5890 5890 5891 5892 5892 5893 5893 5894 5894 5894 5895 5895 5896 5896 5897 5897 5897 5897 5897 5897 5898 5898 5898 5898 5899
5884 5884 5884 5884 5884 5885 5885 5886 5886 5886 5887 5887 5888 5888 5888 5889 5890 5890 5891 5891 5892 5892 5893 5893 5894 5894 5895 5895 5896 5896 5897 5897 5897 5898 5898 5898 5898 5898 5898 5899 5899 5899 5899
5885 5885 5885 5885 5886 5886 5886 5886 5887 5887 5888 5888 5888 5889 5889 5890 5891 5891 5892 5892 5893 5893 5894 5894 5894 5895 5895 5896 5897 5897 5897 5898 5898 5899 5899 5899 5899 5899 5899 5899 5900 5900 5900
5886 5886 5886 5887 5887 5887 5887 5887 5887 5888 5888 5889 5889 5890 5891 5891 5891 5892 5893 5893 5893 5894 5894 5895 5895 5895 5896 5896 5897 5898 5898 5898 5898 5899 5900 5900 5900 5900 5900 5900 5901 5901 5901
5887 5888 5888 5888 5889 5889 5888 5888 5888 5889 5889 5890 5891 5891 5892 5892 5892 5893 5893 5894 5894 5895 5895 5895 5895 5896 5896 5897 5897 5898 5898 5899 5899 5900 5900 5900 5900 5900 5901 5901 5901 5901 5901
5888 5890 5890 5890 5890 5890 5890 5890 5890 5890 5891 5892 5892 5892 5893 5893 5893 5894 5894 5895 5895 5896 5896 5896 5897 5897 5897 5897 5898 5898 5899 5899 5900 5900 5900 5900 5900 5901 5901 5901 5901 5901 5901
5890 5891 5892 5892 5891 5892 5892 5892 5892 5892 5892 5893 5893 5893 5894 5894 5894 5895 5895 5896 5896 5897 5897 5897 5898 5898 5898 5898 5898 5899 5899 5899 5900 5900 5900 5900 5901 5901 5901 5901 5901 5901 5902
5893 5894 5894 5894 5894 5894 5893 5893 5893 5894 5894 5894 5894 5895 5895 5895 5895 5896 5897 5897 5897 5898 5898 5898 5899 5899 5898 5899 5899 5899 5899 5900 5900 5900 5900 5900 5901 5901 5901 5901 5901 5901 5902
5897 5896 5896 5896 5896 5896 5895 5895 5895 5895 5895 5895 5895 5896 5896 5896 5897 5897 5897 5898 5898 5898 5899 5899 5899 5899 5899 5899 5900 5900 5900 5900 5900 5900 5900 5900 5901 5901 5901 5901 5901 5901 5901
5899 5899 5898 5898 5898 5898 5897 5897 5897 5897 5896 5897 5897 5897 5897 5897 5898 5898 5898 5899 5899 5899 5899 5900 5900 5900 5900 5900 5900 5900 5900 5900 5900 5900 5900 5901 5901 5901 5901 5901 5901 5901 5901
5902 5901 5901 5900 5900 5900 5899 5899 5899 5899 5898 5898 5898 5898 5899 5899 5899 5899 5899 5899 5900 5900 5900 5900 5901 5901 5900 5900 5900 5900 5900 5900 5901 5900 5901 5901 5901 5901 5900 5900 5900 5900 5900
5904 5904 5903 5902 5902 5902 5901 5901 5901 5900 5900 5900 5900 5900 5900 5900 5900 5900 5900 5900 5900 5901 5901 5901 5901 5901 5901 5901 5901 5900 5900 5901 5901 5901 5901 5901 5901 5900 5900 5900 5900 5899 5899
5906 5905 5905 5904 5904 5904 5903 5903 5903 5902 5902 5902 5901 5901 5901 5901 5901 5901 5902 5901 5902 5901 5901 5901 5901 5901 5902 5901 5901 5901 5901 5901 5901 5901 5901 5900 5900 5900 5899 5899 5899 5899 5898
5908 5907 5907 5906 5906 5906 5905 5905 5904 5904 5903 5903 5903 5902 5902 5902 5902 5902 5903 5902 5902 5902 5902 5902 5902 5902 5902 5902 5902 5902 5901 5901 5901 5900 5900 5900 5900 5899 5899 5899 5898 5898 5897
5909 5908 5908 5908 5907 5907 5907 5906 5906 5905 5905 5904 5904 5903 5903 5903 5903 5903 5903 5903 5903 5903 5902 5902 5902 5902 5902 5902 5902 5902 5901 5901 5901 5900 5900 5900 5899 5899 5898 5898 5897 5897 5896
5910 5910 5909 5909 5909 5908 5908 5907 5906 5906 5905 5905 5905 5905 5904 5904 5904 5903 5903 5903 5903 5903 5903 5902 5902 5902 5902 5902 5901 5901 5901 5901 5900 5900 5899 5899 5898 5898 5898 5897 5896 5896 5895
5911 5911 5910 5910 5909 5909 5908 5908 5908 5907 5906 5906 5905 5905 5905 5904 5904 5904 5904 5903 5903 5903 5903 5902 5902 5902 5901 5901 5901 5901 5900 5900 5900 5899 5899 5898 5898 5897 5897 5896 5895 5894 5894
5912 5911 5911 5911 5910 5910 5909 5909 5908 5908 5907 5906 5906 5905 5905 5905 5904 5904 5904 5903 5903 5903 5902 5902 5902 5901 5901 5900 5900 5900 5900 5899 5899 5898 5898 5897 5896 5895 5895 5894 5893 5892 5892
5912 5912 5911 5911 5911 5910 5910 5909 5909 5908 5907 5906 5906 5905 5904 5904 5904 5904 5903 5903 5903 5902 5902 5901 5901 5900 5900 5899 5899 5898 5898 5898 5897 5897 5896 5896 5895 5894 5893 5892 5891 5890 5889
5912 5911 5911 5911 5911 5910 5910 5909 5908 5908 5907 5906 5905 5904 5904 5903 5903 5903 5902 5902 5902 5901 5901 5900 5900 5899 5899 5898 5897 5897 5897 5896 5895 5895 5894 5893 5892 5891 5890 5889 5888 5887 5886
5911 5911 5911 5910 5910 5910 5909 5909 5908 5907 5906 5905 5905 5904 5903 5902 5902 5902 5901 5901 5900 5900 5899 5899 5898 5898 5897 5897 5896 5895 5894 5893 5893 5892 5891 5890 5889 5887 5886 5886 5885 5884 5883
5910 5910 5910 5909 5909 5909 5908 5908 5907 5906 5905 5905 5904 5903 5902 5901 5901 5900 5899 5899 5899 5898 5898 5897 5896 5896 5895 5894 5894 5893 5892 5891 5890 5889 5888 5887 5886 5884 5883 5882 5881 5880 5878
5907 5908 5908 5908 5908 5907 5907 5906 5906 5905 5904 5903 5902 5901 5901 5900 5899 5898 5898 5897 5897 5896 5895 5895 5894 5893 5892 5892 5891 5890 5889 5888 5886 5885 5884 5883 5882 5881 5879 5878 5876 5875 5875